FW6809 Weather Reports


Display with metric or nautical units.
time (UTC)temp
F
wind
direction
speed
MPH
gust
MPH
rain 1hr
in
rain 24hr
in
rain mn
in
humidity
%
barometer
mb
20260903091611 70 0 0.0 0.0 0.00 0.00 0.00 100 1020.1
20260903084600 70 0 0.0 0.0 0.00 0.00 0.00 100 1020.2
20260903083056 70 0 0.0 0.0 0.00 0.00 0.00 100 1020.3
20260903081602 70 0 0.0 0.0 0.00 0.00 0.00 99 1020.1
20260903080058 70 0 0.0 0.0 0.00 0.00 0.00 99 1020.1
20260903074558 70 0 0.0 0.0 0.00 0.00 0.00 99 1020.0
20260903073102 71 0 0.0 0.0 0.00 0.00 0.00 99 1020.1
20260903071602 71 0 0.0 0.0 0.00 0.00 0.00 99 1019.9
20260903070057 71 0 0.0 0.0 0.00 0.00 0.00 99 1019.9
20260903064556 71 0 0.0 0.0 0.00 0.00 0.00 99 1020.0
20260903063052 71 0 0.0 0.0 0.00 0.00 0.00 99 1020.0
20260903061554 72 0 0.0 0.0 0.00 0.00 0.00 98 1020.0
20260903060059 72 0 0.0 0.0 0.00 0.00 0.00 98 1020.2
20260903054553 72 0 0.0 0.0 0.00 0.00 0.00 98 1020.1
20260903053054 72 0 0.0 0.0 0.00 0.00 0.00 98 1020.2
20260903051603 72 0 0.0 0.0 0.00 0.00 0.00 98 1020.3
20260903050056 72 0 0.0 0.0 0.00 0.00 0.00 98 1020.2
20260903044549 72 0 0.0 0.0 0.00 0.00 0.00 98 1020.2
20260903043058 72 0 0.0 0.0 0.00 0.00 0.00 97 1020.2
20260903041559 72 0 0.0 0.0 0.00 0.00 0.00 97 1020.2
20260903040054 72 0 0.0 0.0 0.00 0.00 0.00 97 1020.1
20260903034603 73 0 0.0 0.0 0.00 0.00 0.00 97 1020.1
20260903033056 73 0 0.0 0.0 0.00 0.00 0.00 97 1020.4
20260903031555 73 0 0.0 0.0 0.00 0.00 0.00 97 1020.4
20260903030058 73 0 0.0 0.0 0.00 0.00 0.00 97 1020.3
20260903024555 73 0 0.0 0.0 0.00 0.00 0.00 97 1020.4
20260903023122 74 0 0.0 0.0 0.00 0.00 0.00 96 1020.4
20260903021556 74 0 0.0 0.0 0.00 0.00 0.00 96 1020.4
20260903020059 74 0 0.0 0.0 0.00 0.00 0.00 96 1020.2
20260903014603 75 0 0.0 0.0 0.00 0.00 0.00 95 1020.1
20260903013053 75 0 0.0 0.0 0.00 0.00 0.00 94 1020.0
20260903011602 76 0 0.0 0.0 0.00 0.00 0.00 94 1019.8
20260903004557 77 0 0.0 0.0 0.00 0.00 0.00 93 1019.6
20260903003055 78 0 0.0 0.0 0.00 0.00 0.00 91 1019.6
20260903001556 79 0 0.0 0.0 0.00 0.00 0.00 93 1019.5
20260903000059 80 0 0.0 0.0 0.00 0.00 0.00 91 1019.4
20260902234605 81 0 0.0 0.0 0.00 0.00 0.00 89 1019.5
20260902233051 82 0 0.0 0.0 0.00 0.00 0.00 88 1019.5
20260902231602 83 0 0.0 0.0 0.00 0.00 0.00 86 1019.7
20260902230056 84 0 0.0 0.0 0.00 0.00 0.00 84 1019.6
20260902224553 84 0 0.0 0.0 0.00 0.00 0.00 82 1019.7
20260902223105 85 0 0.0 0.0 0.00 0.00 0.00 79 1019.9
20260902221557 87 0 0.0 0.0 0.00 0.00 0.00 77 1019.9
20260902220053 91 0 0.0 1.0 0.00 0.00 0.00 62 1019.7
20260902214556 91 0 0.0 4.0 0.00 0.00 0.00 62 1019.8
20260902213054 91 0 0.0 0.0 0.00 0.00 0.00 62 1019.7
20260902211553 91 0 0.0 2.0 0.00 0.00 0.00 56 1019.8
20260902210058 91 0 0.0 2.0 0.00 0.00 0.00 60 1019.8
20260902204557 91 139 0.0 3.0 0.00 0.00 0.00 58 1020.0
20260902203055 90 0 0.0 0.0 0.00 0.00 0.00 61 1020.0
20260902201606 90 0 0.0 0.0 0.00 0.00 0.00 65 1020.1
20260902200056 91 0 0.0 1.0 0.00 0.00 0.00 62 1020.2
20260902194604 91 0 0.0 2.0 0.00 0.00 0.00 61 1020.3
20260902193104 90 0 0.0 1.0 0.00 0.00 0.00 68 1020.5
20260902191556 92 0 0.0 1.0 0.00 0.00 0.00 64 1020.8
20260902190057 93 0 0.0 3.0 0.00 0.00 0.00 59 1020.9
20260902184559 92 0 0.0 1.0 0.00 0.00 0.00 60 1021.0
20260902183100 91 0 0.0 4.0 0.00 0.00 0.00 61 1021.3
20260902181556 92 137 0.0 4.0 0.00 0.00 0.00 60 1021.4
20260902180055 92 0 0.0 4.0 0.00 0.00 0.00 62 1021.5
20260902174600 91 127 0.0 0.0 0.00 0.00 0.00 61 1021.6
20260902173056 92 0 0.0 3.0 0.00 0.00 0.00 58 1021.9
20260902171606 91 0 0.0 4.0 0.00 0.00 0.00 60 1022.1
20260902170058 91 0 0.0 1.0 0.00 0.00 0.00 64 1022.2
20260902164556 90 139 0.0 3.0 0.00 0.00 0.00 60 1022.4
20260902163053 90 0 0.0 2.0 0.00 0.00 0.00 66 1022.5
20260902161600 90 0 0.0 2.0 0.00 0.00 0.00 66 1022.7
20260902160114 89 0 0.0 1.0 0.00 0.00 0.00 73 1022.8
20260902154559 88 0 0.0 0.0 0.00 0.00 0.00 74 1022.9
20260902153100 88 0 0.0 0.0 0.00 0.00 0.00 76 1023.0
20260902151604 88 0 0.0 0.0 0.00 0.00 0.00 73 1023.0
20260902150056 87 0 0.0 0.0 0.00 0.00 0.00 77 1022.9
20260902144552 86 0 0.0 1.0 0.00 0.00 0.00 77 1022.9
20260902143055 86 0 0.0 1.0 0.00 0.00 0.00 79 1022.9
20260902141555 85 0 0.0 0.0 0.00 0.00 0.00 81 1023.0
20260902140058 84 0 0.0 0.0 0.00 0.00 0.00 83 1022.9
20260902134556 82 0 0.0 0.0 0.00 0.00 0.00 85 1022.7
20260902133106 80 0 0.0 0.0 0.00 0.00 0.00 86 1022.8
20260902131601 79 0 0.0 0.0 0.00 0.00 0.00 88 1022.8
20260902130059 77 0 0.0 0.0 0.00 0.00 0.00 89 1022.7
20260902124555 76 0 0.0 0.0 0.00 0.00 0.00 94 1022.7
20260902123112 72 0 0.0 0.0 0.00 0.00 0.00 99 1022.6
20260902121603 70 0 0.0 0.0 0.00 0.00 0.00 100 1022.6
20260902120054 68 0 0.0 0.0 0.00 0.00 0.00 100 1022.4
20260902114555 67 0 0.0 0.0 0.00 0.00 0.00 100 1022.3
20260902113053 67 0 0.0 0.0 0.00 0.00 0.00 100 1022.1
20260902111556 67 0 0.0 0.0 0.00 0.00 0.00 100 1021.9
20260902110103 67 0 0.0 0.0 0.00 0.00 0.00 100 1021.8
20260902104601 67 0 0.0 0.0 0.00 0.00 0.00 100 1021.7
20260902103101 68 0 0.0 0.0 0.00 0.00 0.00 100 1021.5
20260902101555 68 0 0.0 0.0 0.00 0.00 0.00 100 1021.4
20260902100056 68 0 0.0 0.0 0.00 0.00 0.00 100 1021.4
20260902094600 68 0 0.0 0.0 0.00 0.00 0.00 100 1021.3
20260902093056 68 0 0.0 0.0 0.00 0.00 0.00 100 1021.3